#timestamp,LO_Frequency,Hit,StdDev 
1626897615.3,286046997.1,N
1626897635.1,286046995.4,Y
1626897655.9,286046996.5,P
1626897675.7,286046997.2,P
1626897695.5,286046996.8,P
1626897715.4,286046997.4,Y
1626897735.2,286047002.4,P
1626897755.1,286047000.7,N
1626897756.0,286047000.7,N
1626897775.8,286047000.4,N
1626897795.6,286047000.1,N
1626897815.5,286046998.1,N
1626897835.3,286046999.8,N
1626897855.1,286047000.4,N
1626897875.9,286047000.9,N
1626897895.7,286047000.8,N
1626897915.6,286047000.0,N
1626897935.4,286047000.2,N
1626897955.2,286047000.2,N
1626897975.1,286046999.7,N
1626897976.0,286046999.7,N
1626897995.8,286047002.4,N
1626898015.7,286047000.0,N
1626898035.5,286047000.0,N
1626898055.3,286047002.0,N
1626898075.2,286047001.9,N
1626898095.0,286047002.1,N
1626898095.9,286047002.1,N
1626898115.7,286047004.3,Y
1626898135.6,286047001.7,P
1626898155.4,286047001.7,N
1626898175.3,286047004.3,P
1626898195.1,286047001.5,N
1626898196.0,286047001.5,N
1626898215.8,286047001.4,N
1626898235.7,286047004.4,Y
1626898255.5,286046999.8,P
1626898275.3,286046999.9,N
1626898295.2,286047000.1,N
1626898315.0,286047000.5,N
1626898315.9,286047000.5,N
1626898335.8,286047000.0,N
1626898355.6,286047000.8,N
1626898375.4,286047001.0,N
1626898395.3,286046999.1,N
1626898415.1,286046998.2,N
1626898435.8,286046999.4,N
1626898455.7,286046998.1,N
1626898475.5,286046998.8,N
1626898495.4,286046998.5,N
1626898515.2,286046996.9,N
1626898535.0,286046998.2,N
1626898535.9,286046998.2,N
1626898555.8,286047000.5,N
1626898575.6,286046999.9,N
1626898595.4,286047000.3,N
1626898615.3,286047000.7,N
1626898635.1,286047000.9,N
1626898655.9,286046998.7,N
1626898675.7,286046998.2,N
1626898695.5,286046998.1,N
1626898715.4,286047000.6,N
1626898735.2,286047000.3,N
1626898755.0,286047000.4,N
1626898755.9,286047000.4,N
1626898775.8,286046999.7,N
1626898795.6,286047000.3,N
1626898815.5,286047001.7,N
1626898835.3,286047000.1,N
1626898855.1,286047002.4,N
1626898875.9,286047001.5,N
1626898895.7,286047004.2,Y
1626898915.5,286047004.0,P
1626898935.4,286047001.3,N
1626898955.2,286047001.7,N
1626898975.1,286047001.7,N
1626898976.0,286047001.7,N
1626898995.8,286047001.4,N
1626899015.6,286047001.3,N
1626899035.5,286047004.4,Y
1626899055.3,286046999.8,P
1626899075.1,286047002.5,N
1626899095.9,286047000.0,N
1626899115.7,286047001.7,N
1626899135.6,286046999.7,N
1626899155.4,286046999.7,N
1626899175.2,286047001.9,N
1626899195.1,286047001.4,N
1626899196.0,286047001.4,N
1626899215.8,286047004.4,Y
1626899235.7,286047001.4,P
1626899255.5,286047002.6,P
1626899275.3,286047000.2,N
1626899295.2,286047000.0,N
1626899315.0,286047000.9,N
1626899315.9,286047000.9,N
1626899335.8,286047000.5,N
1626899355.6,286047000.8,N
1626899375.4,286047000.3,N
1626899395.3,286047000.1,N
1626899415.1,286047002.4,Y
1626899435.8,286046999.7,P
1626899455.7,286047000.1,N
1626899475.5,286047000.9,N
1626899495.4,286046998.2,Y
1626899515.2,286046999.1,P
1626899535.0,286046999.9,N
1626899535.9,286046999.9,N
1626899555.8,286047000.7,N
1626899575.6,286047000.8,N
1626899595.5,286046998.1,Y
1626899615.3,286047001.1,P
1626899635.1,286047000.7,N
1626899655.9,286047001.1,N
1626899675.7,286046998.1,Y
1626899695.6,286046997.0,P
1626899715.4,286046997.1,N
1626899735.2,286046998.1,N
1626899755.1,286046998.3,N
1626899756.0,286046998.3,N
1626899775.8,286046999.2,N
1626899795.6,286046999.6,N
1626899815.5,286046998.6,N
1626899835.3,286046998.5,N
1626899855.2,286046998.6,N
1626899875.9,286046998.1,N
1626899895.7,286046998.8,N
1626899915.6,286046998.7,N
1626899935.4,286046998.6,N
1626899955.2,286046999.6,N
1626899975.1,286046999.1,N
1626899976.0,286046999.1,N
1626899995.8,286047001.2,N
1626900015.7,286047000.7,N
1626900035.5,286047001.1,N
1626900055.3,286047001.0,N
1626900075.2,286046999.8,N
1626900095.0,286047002.7,N
1626900095.9,286047002.7,N
1626900115.8,286047001.6,N
1626900135.6,286047002.8,N
1626900155.4,286047004.4,N
1626900175.3,286047001.4,N
1626900195.1,286047002.1,N
1626900215.9,286047002.6,N
1626900235.7,286047002.1,N
1626900255.5,286047001.3,N
1626900275.4,286047003.6,N
1626900295.2,286047005.5,Y
1626900315.0,286047005.5,P
1626900315.9,286047005.5,N
1626900335.8,286047005.4,N
1626900355.6,286047006.9,Y
1626900375.5,286047001.6,P
1626900395.3,286047001.4,N
1626900415.1,286047004.0,P
1626900435.9,286047003.6,N
1626900455.7,286047003.6,N
1626900475.6,286047003.0,N
1626900495.4,286047003.1,N
1626900515.2,286047005.2,Y
1626900535.1,286047001.6,P
1626900536.0,286047001.6,N
1626900555.8,286047000.4,N
1626900575.7,286047000.6,N
1626900595.5,286047001.5,N
1626900615.3,286047003.6,Y
1626900635.2,286047002.7,P
1626900655.0,286047001.0,N
1626900655.9,286047001.0,N
1626900675.8,286046998.6,N
1626900695.6,286046998.9,N
1626900715.4,286047000.7,N
1626900735.3,286046998.6,N
1626900755.1,286046998.7,N
1626900775.8,286046998.7,N
1626900795.7,286047000.1,N
1626900815.5,286047001.0,N
1626900835.4,286047000.0,N
1626900855.2,286047001.0,N
1626900875.0,286047001.0,N
1626900875.9,286047001.0,N
1626900895.8,286047000.9,N
1626900915.6,286046998.3,N
1626900935.4,286046998.7,N
1626900955.3,286046998.3,N
1626900975.1,286046999.4,N
1626900995.9,286047001.1,N
1626901015.7,286047000.7,N
1626901035.5,286047000.2,N
1626901055.4,286047000.3,N
1626901075.2,286047000.5,N
1626901095.0,286046998.3,N
1626901096.0,286046998.3,N
1626901115.8,286046998.2,N
1626901135.6,286047000.7,N
1626901155.5,286046999.6,N
1626901175.3,286046999.4,N
1626901195.1,286046996.8,Y
